Weather History for KCRG - August, 2013

Change the Weather History Date:

Wednesday, August 7, 2013

  Actual Average Record
Temperature  
Mean Temperature 84 °F -  
Max Temperature 89 °F 87 °F 100 °F (2011)
Min Temperature 80 °F 71 °F 72 °F (2000)
Cooling Degree Days 20    
Growing Degree Days 34 (Base 50)    
Moisture  
Dew Point 75 °F    
Average Humidity 73    
Maximum Humidity 85    
Minimum Humidity 61    
Precipitation  
Precipitation 0.00 in - - ()
Sea Level Pressure  
Sea Level Pressure 30.00 in    
Wind  
Wind Speed 7 mph (East)    
Max Wind Speed 14 mph    
Max Gust Speed 20 mph    
Visibility 10 miles    
Events      
Averages and records for this station are not official NWS values.
T = Trace of Precipitation, MM = Missing Value Source: NWS Daily Summary

Daily Weather History Graph

Daily Weather History Graph

Search for Another Location

Airport or City:

Trip Planner

Search our weather history database for the weather conditions in past years. The results will help you decide how hot, cold, wet, or windy it might be!

Date:

Astronomy

Aug. 07, 2013 Rise Set
Actual Time 6:48 AM EDT 8:14 PM EDT
Civil Twilight 6:22 AM EDT 8:40 PM EDT
Nautical Twilight 5:51 AM EDT 9:11 PM EDT
Astronomical Twilight 5:19 AM EDT 9:42 PM EDT
Moon 7:27 AM EDT (8/7) 8:31 PM EDT (8/7)
Length of Visible Light 14h 17m
Length of Day
13h 26m
New Moon, 1% of the Moon is Illuminated
Aug 7
New Moon
Aug 14
First Quarter
Aug 20
Full
Aug 28
Last Quarter
Sep 5
New

Hourly Weather History & Observations

Time (EDT) Temp. Heat Index Dew Point Humidity Pressure Visibility Wind Dir Wind Speed Gust Speed Precip Events Conditions
12:53 AM 82.0 °F 88.6 °F 75.0 °F 79% 30.00 in 10.0 mi ESE 5.8 mph - N/A   Clear
1:53 AM 82.0 °F 88.6 °F 75.0 °F 79% 29.98 in 10.0 mi East 4.6 mph - N/A   Clear
2:53 AM 81.0 °F 86.7 °F 75.0 °F 82% 29.96 in 10.0 mi ESE 3.5 mph - N/A   Scattered Clouds
3:38 AM 80.6 °F 86.2 °F 75.2 °F 84% 29.97 in 10.0 mi Calm Calm - N/A   Mostly Cloudy
3:53 AM 80.1 °F 85.1 °F 75.0 °F 85% 29.96 in 10.0 mi East 3.5 mph - N/A   Mostly Cloudy
4:53 AM 81.0 °F 86.7 °F 75.0 °F 82% 29.97 in 10.0 mi ESE 3.5 mph - N/A   Scattered Clouds
5:03 AM 82.4 °F 89.5 °F 75.2 °F 79% 29.97 in 10.0 mi East 4.6 mph - N/A   Mostly Cloudy
5:12 AM 80.6 °F 85.4 °F 73.4 °F 79% 29.97 in 10.0 mi East 5.8 mph - N/A   Mostly Cloudy
5:53 AM 81.0 °F 86.2 °F 73.9 °F 79% 29.98 in 10.0 mi ESE 4.6 mph - N/A   Scattered Clouds
6:53 AM 81.0 °F 86.2 °F 73.9 °F 79% 29.99 in 10.0 mi East 4.6 mph - N/A   Partly Cloudy
7:53 AM 82.9 °F 90.2 °F 75.0 °F 77% 29.99 in 10.0 mi East 3.5 mph - N/A   Clear
8:53 AM 84.0 °F 91.2 °F 73.9 °F 72% 30.01 in 10.0 mi East 8.1 mph - N/A   Scattered Clouds
9:24 AM 84.2 °F 90.9 °F 73.4 °F 70% 30.01 in 10.0 mi ESE 8.1 mph - N/A   Mostly Cloudy
9:53 AM 86.0 °F 93.8 °F 73.9 °F 67% 30.02 in 10.0 mi East 11.5 mph - N/A   Mostly Cloudy
10:53 AM 86.0 °F 93.8 °F 73.9 °F 67% 30.03 in 10.0 mi East 10.4 mph - N/A   Mostly Cloudy
11:53 AM 87.1 °F 95.4 °F 73.9 °F 65% 30.03 in 10.0 mi East 11.5 mph 19.6 mph N/A   Mostly Cloudy
12:28 PM 87.8 °F 97.6 °F 75.2 °F 66% 30.02 in 10.0 mi East 10.4 mph - N/A   Mostly Cloudy
12:53 PM 88.0 °F 96.5 °F 73.9 °F 63% 30.02 in 10.0 mi East 13.8 mph - N/A   Mostly Cloudy
1:53 PM 88.0 °F 95.6 °F 73.0 °F 61% 30.03 in 10.0 mi East 11.5 mph - N/A   Scattered Clouds
2:25 PM 87.8 °F 97.6 °F 75.2 °F 66% 30.02 in 10.0 mi East 11.5 mph - N/A   Mostly Cloudy
2:53 PM 87.1 °F 96.3 °F 75.0 °F 67% 30.01 in 10.0 mi East 12.7 mph 19.6 mph N/A   Mostly Cloudy
3:10 PM 87.8 °F 97.6 °F 75.2 °F 66% 30.00 in 10.0 mi East 10.4 mph - N/A   Mostly Cloudy
3:53 PM 88.0 °F 97.5 °F 75.0 °F 65% 29.99 in 10.0 mi East 11.5 mph - N/A   Mostly Cloudy
4:01 PM 89.6 °F 99.8 °F 75.2 °F 62% 29.99 in 10.0 mi East 11.5 mph - N/A   Scattered Clouds
4:53 PM 87.1 °F 95.4 °F 73.9 °F 65% 29.99 in 10.0 mi East 10.4 mph - N/A   Mostly Cloudy
5:13 PM 87.8 °F 95.6 °F 73.4 °F 62% 29.99 in 10.0 mi East 8.1 mph - N/A   Scattered Clouds
5:53 PM 87.1 °F 95.4 °F 73.9 °F 65% 29.98 in 10.0 mi East 12.7 mph - N/A   Partly Cloudy
6:53 PM 84.0 °F 91.9 °F 75.0 °F 74% 29.98 in 10.0 mi ENE 10.4 mph - N/A   Scattered Clouds
7:18 PM 84.2 °F 92.3 °F 75.2 °F 74% 29.99 in 10.0 mi East 10.4 mph - N/A   Mostly Cloudy
7:28 PM 84.2 °F 92.3 °F 75.2 °F 74% 29.99 in 10.0 mi East 6.9 mph - N/A   Scattered Clouds
7:53 PM 82.9 °F 90.2 °F 75.0 °F 77% 29.99 in 10.0 mi East 8.1 mph - N/A   Clear
8:35 PM 82.4 °F 89.5 °F 75.2 °F 79% 29.99 in 10.0 mi ESE 6.9 mph - N/A   Mostly Cloudy
8:53 PM 82.9 °F 90.2 °F 75.0 °F 77% 29.99 in 10.0 mi East 5.8 mph - N/A   Mostly Cloudy
9:09 PM 82.4 °F 89.5 °F 75.2 °F 79% 29.99 in 10.0 mi East 4.6 mph - N/A   Scattered Clouds
9:53 PM 82.0 °F 89.4 °F 75.9 °F 82% 30.00 in 10.0 mi East 4.6 mph - N/A   Partly Cloudy
10:53 PM 81.0 °F 86.7 °F 75.0 °F 82% 30.01 in 10.0 mi East 3.5 mph - N/A   Clear
11:53 PM 81.0 °F 86.7 °F 75.0 °F 82% 30.01 in 10.0 mi Calm Calm - N/A   Clear